| time (UTC) | temp F | wind direction | speed MPH | gust MPH | rain 1hr in | rain 24hr in | rain mn in | humidity % | barometer mb |
| 20260509105301 | 65 | 114 | 3.0 | 4.0 | 0.00 | 0.46 | 0.40 | 80 | 1016.1 |
| 20260509104801 | 65 | 104 | 3.0 | 4.0 | 0.00 | 0.46 | 0.40 | 79 | 1016.2 |
| 20260509104301 | 65 | 76 | 2.0 | 5.0 | 0.00 | 0.46 | 0.40 | 79 | 1016.2 |
| 20260509103801 | 65 | 337 | 2.0 | 3.0 | 0.00 | 0.46 | 0.40 | 80 | 1016.2 |
| 20260509103301 | 65 | 351 | 2.0 | 5.0 | 0.00 | 0.46 | 0.40 | 80 | 1016.2 |
| 20260509102801 | 65 | 26 | 1.0 | 4.0 | 0.00 | 0.46 | 0.40 | 82 | 1016.2 |
| 20260509102301 | 65 | 178 | 1.0 | 2.0 | 0.00 | 0.46 | 0.40 | 83 | 1016.2 |
| 20260509101801 | 65 | 175 | 1.0 | 3.0 | 0.00 | 0.46 | 0.40 | 84 | 1016.2 |
| 20260509101301 | 64 | 101 | 1.0 | 3.0 | 0.00 | 0.46 | 0.40 | 85 | 1016.1 |
| 20260509100801 | 64 | 101 | 2.0 | 4.0 | 0.00 | 0.46 | 0.40 | 85 | 1016.2 |
| 20260509100301 | 64 | 112 | 2.0 | 4.0 | 0.00 | 0.46 | 0.40 | 85 | 1016.2 |
| 20260509095801 | 64 | 111 | 3.0 | 4.0 | 0.00 | 0.46 | 0.40 | 85 | 1016.2 |
| 20260509095301 | 64 | 71 | 2.0 | 4.0 | 0.00 | 0.46 | 0.40 | 86 | 1016.2 |
| 20260509094801 | 63 | 105 | 1.0 | 2.0 | 0.00 | 0.46 | 0.40 | 86 | 1016.3 |
| 20260509094301 | 63 | 130 | 2.0 | 3.0 | 0.00 | 0.46 | 0.40 | 86 | 1016.4 |
| 20260509093801 | 63 | 130 | 2.0 | 5.0 | 0.00 | 0.46 | 0.40 | 86 | 1016.4 |
| 20260509093301 | 63 | 176 | 3.0 | 6.0 | 0.00 | 0.46 | 0.40 | 87 | 1016.4 |
| 20260509092801 | 63 | 159 | 3.0 | 6.0 | 0.00 | 0.46 | 0.40 | 88 | 1016.5 |
| 20260509092301 | 63 | 73 | 3.0 | 5.0 | 0.00 | 0.46 | 0.40 | 89 | 1016.3 |
| 20260509091801 | 62 | 57 | 3.0 | 5.0 | 0.00 | 0.46 | 0.40 | 89 | 1016.3 |
| 20260509091301 | 62 | 106 | 2.0 | 6.0 | 0.00 | 0.46 | 0.40 | 90 | 1016.5 |
| 20260509090801 | 61 | 111 | 2.0 | 4.0 | 0.00 | 0.46 | 0.40 | 90 | 1016.4 |
| 20260509090301 | 61 | 117 | 2.0 | 4.0 | 0.00 | 0.46 | 0.40 | 90 | 1016.5 |
| 20260509085801 | 61 | 119 | 2.0 | 3.0 | 0.00 | 0.46 | 0.40 | 90 | 1016.5 |
| 20260509085301 | 61 | 145 | 3.0 | 4.0 | 0.00 | 0.46 | 0.40 | 91 | 1016.5 |
| 20260509084801 | 60 | 65 | 3.0 | 4.0 | 0.00 | 0.46 | 0.40 | 91 | 1016.4 |
| 20260509084301 | 60 | 80 | 2.0 | 4.0 | 0.00 | 0.46 | 0.40 | 92 | 1016.5 |
| 20260509083801 | 60 | 85 | 3.0 | 4.0 | 0.00 | 0.46 | 0.40 | 91 | 1016.6 |
| 20260509083301 | 60 | 95 | 4.0 | 7.0 | 0.00 | 0.46 | 0.40 | 92 | 1016.4 |
| 20260509082801 | 61 | 101 | 2.0 | 6.0 | 0.00 | 0.46 | 0.40 | 92 | 1016.5 |
| 20260509082301 | 61 | 85 | 2.0 | 3.0 | 0.00 | 0.46 | 0.40 | 92 | 1016.5 |
| 20260509081801 | 60 | 98 | 2.0 | 6.0 | 0.00 | 0.46 | 0.40 | 93 | 1016.4 |
| 20260509081301 | 60 | 106 | 2.0 | 4.0 | 0.00 | 0.46 | 0.40 | 92 | 1016.3 |
| 20260509080801 | 60 | 107 | 2.0 | 4.0 | 0.00 | 0.46 | 0.40 | 92 | 1016.4 |
| 20260509080301 | 59 | 78 | 2.0 | 4.0 | 0.00 | 0.46 | 0.40 | 93 | 1016.3 |
| 20260509075801 | 59 | 147 | 2.0 | 4.0 | 0.00 | 0.46 | 0.40 | 93 | 1016.3 |
| 20260509075301 | 59 | 108 | 3.0 | 4.0 | 0.00 | 0.46 | 0.40 | 93 | 1016.2 |
| 20260509074801 | 59 | 90 | 3.0 | 3.0 | 0.00 | 0.46 | 0.40 | 93 | 1016.2 |
| 20260509074301 | 59 | 102 | 2.0 | 3.0 | 0.00 | 0.46 | 0.40 | 93 | 1016.2 |
| 20260509073801 | 58 | 98 | 2.0 | 3.0 | 0.00 | 0.46 | 0.40 | 94 | 1016.2 |
| 20260509073301 | 58 | 109 | 2.0 | 3.0 | 0.00 | 0.46 | 0.40 | 94 | 1016.3 |
| 20260509072801 | 58 | 109 | 2.0 | 3.0 | 0.00 | 0.46 | 0.40 | 94 | 1016.2 |
| 20260509072301 | 58 | 111 | 2.0 | 3.0 | 0.00 | 0.46 | 0.40 | 94 | 1016.1 |
| 20260509071801 | 58 | 111 | 2.0 | 3.0 | 0.00 | 0.46 | 0.40 | 94 | 1016.1 |
| 20260509071301 | 58 | 111 | 2.0 | 3.0 | 0.00 | 0.46 | 0.40 | 94 | 1016.1 |
| 20260509070801 | 58 | 130 | 2.0 | 3.0 | 0.00 | 0.46 | 0.40 | 94 | 1016.1 |
| 20260509070301 | 58 | 130 | 2.0 | 3.0 | 0.00 | 0.46 | 0.40 | 94 | 1016.0 |
| 20260509065801 | 58 | 157 | 1.0 | 2.0 | 0.00 | 0.46 | 0.40 | 94 | 1016.1 |
| 20260509065305 | 58 | 158 | 1.0 | 2.0 | 0.00 | 0.46 | 0.40 | 94 | 1016.1 |
| 20260509064801 | 58 | 158 | 1.0 | 4.0 | 0.00 | 0.46 | 0.40 | 94 | 1016.0 |
| 20260509064301 | 58 | 160 | 1.0 | 2.0 | 0.00 | 0.46 | 0.40 | 94 | 1016.0 |
| 20260509063801 | 58 | 77 | 1.0 | 2.0 | 0.00 | 0.46 | 0.40 | 94 | 1016.1 |
| 20260509063301 | 58 | 77 | 1.0 | 2.0 | 0.00 | 0.46 | 0.40 | 94 | 1015.9 |
| 20260509062801 | 58 | 76 | 1.0 | 3.0 | 0.00 | 0.46 | 0.40 | 94 | 1015.9 |
| 20260509062301 | 57 | 76 | 1.0 | 3.0 | 0.00 | 0.46 | 0.40 | 94 | 1015.8 |
| 20260509061801 | 57 | 60 | 1.0 | 2.0 | 0.00 | 0.46 | 0.40 | 94 | 1015.9 |
| 20260509061301 | 57 | 59 | 2.0 | 3.0 | 0.00 | 0.46 | 0.40 | 94 | 1015.9 |
| 20260509060801 | 57 | 58 | 3.0 | 4.0 | 0.00 | 0.46 | 0.40 | 94 | 1015.8 |
| 20260509060301 | 57 | 49 | 1.0 | 4.0 | 0.00 | 0.46 | 0.40 | 94 | 1015.7 |
| 20260509055801 | 57 | 300 | 1.0 | 2.0 | 0.00 | 0.46 | 0.40 | 94 | 1015.8 |
| 20260509055301 | 57 | 249 | 2.0 | 3.0 | 0.00 | 0.46 | 0.40 | 94 | 1015.7 |
| 20260509054801 | 57 | 242 | 2.0 | 3.0 | 0.00 | 0.46 | 0.40 | 94 | 1015.6 |
| 20260509054301 | 57 | 254 | 2.0 | 4.0 | 0.00 | 0.46 | 0.40 | 94 | 1015.7 |
| 20260509053801 | 57 | 268 | 3.0 | 4.0 | 0.00 | 0.46 | 0.40 | 94 | 1015.7 |
| 20260509053301 | 57 | 298 | 3.0 | 6.0 | 0.00 | 0.46 | 0.40 | 94 | 1015.7 |
| 20260509052801 | 57 | 257 | 3.0 | 6.0 | 0.00 | 0.46 | 0.40 | 94 | 1015.7 |
| 20260509052301 | 57 | 285 | 2.0 | 4.0 | 0.00 | 0.46 | 0.40 | 94 | 1015.7 |
| 20260509051801 | 57 | 40 | 2.0 | 4.0 | 0.00 | 0.46 | 0.40 | 94 | 1015.5 |
| 20260509051301 | 57 | 342 | 1.0 | 3.0 | 0.00 | 0.46 | 0.40 | 94 | 1015.5 |
| 20260509050801 | 57 | 333 | 2.0 | 3.0 | 0.01 | 0.46 | 0.40 | 94 | 1015.6 |
| 20260509045801 | 57 | 313 | 3.0 | 5.0 | 0.01 | 0.46 | 0.40 | 94 | 1015.6 |
| 20260509045301 | 57 | 292 | 3.0 | 6.0 | 0.02 | 0.46 | 0.40 | 94 | 1015.5 |
| 20260509044801 | 57 | 271 | 3.0 | 4.0 | 0.02 | 0.46 | 0.40 | 94 | 1015.6 |
| 20260509044301 | 57 | 263 | 3.0 | 4.0 | 0.02 | 0.46 | 0.40 | 94 | 1015.6 |
| 20260509043801 | 57 | 256 | 3.0 | 4.0 | 0.04 | 0.46 | 0.40 | 94 | 1015.5 |
| 20260509043301 | 57 | 257 | 3.0 | 5.0 | 0.05 | 0.46 | 0.40 | 94 | 1015.4 |
| 20260509042801 | 57 | 255 | 3.0 | 4.0 | 0.06 | 0.46 | 0.40 | 94 | 1015.4 |
| 20260509042301 | 57 | 242 | 3.0 | 4.0 | 0.07 | 0.46 | 0.40 | 94 | 1015.4 |
| 20260509041801 | 57 | 249 | 3.0 | 4.0 | 0.08 | 0.46 | 0.40 | 94 | 1015.3 |
| 20260509041301 | 57 | 275 | 3.0 | 6.0 | 0.08 | 0.46 | 0.40 | 94 | 1015.3 |
| 20260509040801 | 57 | 277 | 4.0 | 6.0 | 0.08 | 0.45 | 0.39 | 94 | 1015.2 |
| 20260509040301 | 57 | 283 | 4.0 | 7.0 | 0.09 | 0.45 | 0.39 | 94 | 1015.3 |
| 20260509035802 | 57 | 287 | 3.0 | 6.0 | 0.10 | 0.45 | 0.39 | 94 | 1015.2 |
| 20260509035305 | 57 | 272 | 4.0 | 6.0 | 0.09 | 0.44 | 0.38 | 94 | 1015.2 |
| 20260509034802 | 57 | 310 | 4.0 | 6.0 | 0.10 | 0.44 | 0.38 | 94 | 1015.2 |
| 20260509034302 | 57 | 301 | 4.0 | 8.0 | 0.10 | 0.44 | 0.38 | 94 | 1015.1 |
| 20260509033801 | 57 | 309 | 4.0 | 7.0 | 0.09 | 0.42 | 0.36 | 94 | 1015.2 |
| 20260509033302 | 57 | 326 | 4.0 | 6.0 | 0.08 | 0.41 | 0.35 | 94 | 1015.1 |
| 20260509032802 | 57 | 293 | 5.0 | 7.0 | 0.08 | 0.40 | 0.34 | 94 | 1015.0 |
| 20260509032306 | 57 | 301 | 5.0 | 7.0 | 0.07 | 0.39 | 0.33 | 94 | 1015.1 |
| 20260509031802 | 57 | 284 | 4.0 | 6.0 | 0.07 | 0.38 | 0.32 | 94 | 1014.8 |
| 20260509031302 | 57 | 282 | 4.0 | 6.0 | 0.08 | 0.38 | 0.32 | 94 | 1014.7 |
| 20260509030802 | 57 | 272 | 4.0 | 5.0 | 0.07 | 0.37 | 0.31 | 94 | 1014.7 |
| 20260509030302 | 57 | 294 | 3.0 | 6.0 | 0.07 | 0.36 | 0.30 | 94 | 1014.6 |
| 20260509025802 | 57 | 286 | 3.0 | 4.0 | 0.07 | 0.35 | 0.29 | 94 | 1014.7 |
| 20260509025302 | 57 | 286 | 3.0 | 4.0 | 0.07 | 0.35 | 0.29 | 93 | 1014.7 |
| 20260509024802 | 57 | 299 | 3.0 | 4.0 | 0.07 | 0.34 | 0.28 | 93 | 1014.6 |
| 20260509024302 | 57 | 280 | 4.0 | 6.0 | 0.08 | 0.34 | 0.28 | 93 | 1014.5 |
| 20260509023802 | 57 | 302 | 4.0 | 8.0 | 0.07 | 0.33 | 0.27 | 93 | 1014.5 |
| 20260509023302 | 57 | 321 | 4.0 | 8.0 | 0.08 | 0.33 | 0.27 | 93 | 1014.6 |
| 20260509022802 | 57 | 304 | 4.0 | 5.0 | 0.07 | 0.32 | 0.26 | 93 | 1014.5 |
| 20260509022306 | 57 | 313 | 5.0 | 8.0 | 0.08 | 0.32 | 0.26 | 93 | 1014.6 |
| 20260509021802 | 57 | 284 | 5.0 | 7.0 | 0.08 | 0.31 | 0.25 | 93 | 1014.6 |
| 20260509021302 | 57 | 291 | 4.0 | 7.0 | 0.08 | 0.30 | 0.24 | 93 | 1014.6 |
| 20260509020802 | 57 | 306 | 4.0 | 5.0 | 0.08 | 0.30 | 0.24 | 93 | 1014.6 |
| 20260509020302 | 57 | 290 | 4.0 | 6.0 | 0.07 | 0.29 | 0.23 | 93 | 1014.7 |
| 20260509015802 | 57 | 296 | 2.0 | 5.0 | 0.09 | 0.29 | 0.23 | 93 | 1014.7 |
| 20260509015305 | 57 | 295 | 0.0 | 4.0 | 0.08 | 0.28 | 0.22 | 93 | 1014.8 |
| 20260509014802 | 57 | 297 | 0.0 | 0.0 | 0.08 | 0.27 | 0.21 | 93 | 1014.8 |
| 20260509014302 | 57 | 252 | 0.0 | 0.0 | 0.08 | 0.26 | 0.20 | 93 | 1014.8 |
| 20260509013802 | 57 | 252 | 0.0 | 0.0 | 0.08 | 0.26 | 0.20 | 93 | 1014.8 |
| 20260509013302 | 57 | 180 | 0.0 | 0.0 | 0.08 | 0.25 | 0.19 | 93 | 1014.9 |
| 20260509012802 | 57 | 180 | 0.0 | 0.0 | 0.08 | 0.25 | 0.19 | 93 | 1014.9 |
| 20260509012302 | 57 | 180 | 0.0 | 0.0 | 0.07 | 0.24 | 0.18 | 93 | 1014.9 |
| 20260509011802 | 57 | 180 | 0.0 | 0.0 | 0.07 | 0.23 | 0.17 | 93 | 1014.9 |
| 20260509011302 | 57 | 180 | 0.0 | 0.0 | 0.06 | 0.22 | 0.16 | 93 | 1014.9 |
| 20260509010802 | 57 | 180 | 1.0 | 2.0 | 0.06 | 0.22 | 0.16 | 92 | 1015.0 |
| 20260509010302 | 57 | 180 | 1.0 | 2.0 | 0.07 | 0.22 | 0.16 | 93 | 1015.0 |
| 20260509005802 | 57 | 180 | 1.0 | 2.0 | 0.06 | 0.20 | 0.14 | 92 | 1014.9 |
| 20260509005305 | 57 | 180 | 1.0 | 2.0 | 0.06 | 0.20 | 0.14 | 92 | 1015.0 |
| 20260509004802 | 57 | 180 | 2.0 | 3.0 | 0.05 | 0.19 | 0.13 | 92 | 1014.9 |
| 20260509004302 | 57 | 180 | 2.0 | 3.0 | 0.04 | 0.18 | 0.12 | 93 | 1014.9 |
| 20260509003802 | 57 | 178 | 2.0 | 2.0 | 0.04 | 0.18 | 0.12 | 93 | 1015.0 |
| 20260509003302 | 57 | 178 | 2.0 | 3.0 | 0.04 | 0.17 | 0.11 | 92 | 1015.1 |
| 20260509002802 | 57 | 177 | 1.0 | 3.0 | 0.04 | 0.17 | 0.11 | 92 | 1015.1 |
| 20260509002305 | 57 | 177 | 1.0 | 2.0 | 0.04 | 0.17 | 0.11 | 92 | 1015.1 |
| 20260509001802 | 57 | 177 | 1.0 | 3.0 | 0.04 | 0.16 | 0.10 | 92 | 1015.2 |
| 20260509001302 | 57 | 180 | 1.0 | 2.0 | 0.04 | 0.16 | 0.10 | 92 | 1015.1 |
| 20260509000802 | 57 | 180 | 2.0 | 4.0 | 0.04 | 0.16 | 0.10 | 92 | 1015.2 |
| 20260509000303 | 58 | 178 | 2.0 | 4.0 | 0.04 | 0.15 | 0.09 | 92 | 1015.2 |
| 20260508235802 | 57 | 153 | 2.0 | 3.0 | 0.05 | 0.15 | 0.09 | 92 | 1015.2 |
| 20260508235306 | 58 | 152 | 2.0 | 4.0 | 0.04 | 0.14 | 0.08 | 92 | 1015.2 |
| 20260508234802 | 58 | 178 | 2.0 | 3.0 | 0.05 | 0.14 | 0.08 | 92 | 1015.4 |
| 20260508234302 | 57 | 180 | 1.0 | 3.0 | 0.05 | 0.14 | 0.08 | 92 | 1015.4 |
| 20260508233802 | 57 | 178 | 0.0 | 2.0 | 0.06 | 0.14 | 0.08 | 92 | 1015.4 |
| 20260508233302 | 57 | 178 | 0.0 | 0.0 | 0.05 | 0.13 | 0.07 | 92 | 1015.5 |
| 20260508232802 | 57 | 178 | 1.0 | 2.0 | 0.05 | 0.13 | 0.07 | 92 | 1015.5 |
| 20260508232306 | 57 | 178 | 1.0 | 2.0 | 0.05 | 0.13 | 0.07 | 92 | 1015.6 |
| 20260508231802 | 57 | 178 | 1.0 | 2.0 | 0.05 | 0.12 | 0.06 | 91 | 1015.6 |
| 20260508231302 | 57 | 186 | 2.0 | 3.0 | 0.05 | 0.12 | 0.06 | 91 | 1015.6 |
| 20260508230802 | 57 | 185 | 1.0 | 3.0 | 0.06 | 0.12 | 0.06 | 91 | 1015.6 |
| 20260508230302 | 58 | 181 | 1.0 | 2.0 | 0.04 | 0.10 | 0.04 | 91 | 1015.7 |
| 20260508225802 | 58 | 181 | 1.0 | 2.0 | 0.04 | 0.10 | 0.04 | 91 | 1015.7 |
| 20260508225306 | 58 | 181 | 2.0 | 3.0 | 0.04 | 0.10 | 0.04 | 91 | 1015.7 |
| 20260508224802 | 58 | 171 | 2.0 | 4.0 | 0.04 | 0.09 | 0.03 | 91 | 1015.8 |
| 20260508224302 | 58 | 167 | 2.0 | 4.0 | 0.04 | 0.09 | 0.03 | 91 | 1015.8 |
| 20260508223802 | 58 | 167 | 3.0 | 4.0 | 0.04 | 0.08 | 0.02 | 91 | 1015.7 |
| 20260508223302 | 58 | 161 | 4.0 | 6.0 | 0.04 | 0.08 | 0.02 | 91 | 1015.7 |
| 20260508222802 | 58 | 172 | 5.0 | 6.0 | 0.04 | 0.08 | 0.02 | 91 | 1015.7 |
| 20260508222306 | 58 | 161 | 5.0 | 8.0 | 0.05 | 0.08 | 0.02 | 90 | 1015.6 |
| 20260508221802 | 58 | 154 | 5.0 | 8.0 | 0.04 | 0.07 | 0.01 | 90 | 1015.6 |
| 20260508221302 | 58 | 146 | 5.0 | 9.0 | 0.04 | 0.07 | 0.01 | 90 | 1015.6 |
| 20260508220802 | 58 | 168 | 4.0 | 8.0 | 0.04 | 0.06 | 0.00 | 90 | 1015.6 |
| 20260508220302 | 58 | 155 | 3.0 | 6.0 | 0.04 | 0.06 | 0.00 | 90 | 1015.4 |
| 20260508215802 | 58 | 161 | 3.0 | 4.0 | 0.04 | 0.06 | 0.06 | 90 | 1015.4 |
| 20260508215306 | 58 | 150 | 4.0 | 6.0 | 0.04 | 0.06 | 0.06 | 90 | 1015.4 |
| 20260508214802 | 58 | 166 | 4.0 | 6.0 | 0.05 | 0.06 | 0.06 | 90 | 1015.4 |
| 20260508214302 | 58 | 152 | 3.0 | 5.0 | 0.04 | 0.05 | 0.05 | 90 | 1015.3 |
| 20260508213802 | 58 | 140 | 4.0 | 6.0 | 0.04 | 0.04 | 0.04 | 89 | 1015.3 |
| 20260508213302 | 58 | 136 | 4.0 | 8.0 | 0.04 | 0.04 | 0.04 | 89 | 1015.3 |
| 20260508212802 | 58 | 139 | 4.0 | 7.0 | 0.04 | 0.04 | 0.04 | 89 | 1015.4 |
| 20260508212306 | 58 | 146 | 5.0 | 6.0 | 0.03 | 0.03 | 0.03 | 89 | 1015.4 |
| 20260508211802 | 58 | 155 | 5.0 | 7.0 | 0.03 | 0.03 | 0.03 | 88 | 1015.3 |
| 20260508211302 | 58 | 141 | 5.0 | 8.0 | 0.03 | 0.03 | 0.03 | 88 | 1015.4 |
| 20260508210802 | 59 | 159 | 4.0 | 8.0 | 0.02 | 0.02 | 0.02 | 88 | 1015.4 |
| 20260508210302 | 59 | 143 | 4.0 | 8.0 | 0.02 | 0.02 | 0.02 | 88 | 1015.4 |
| 20260508205802 | 59 | 127 | 4.0 | 8.0 | 0.02 | 0.02 | 0.02 | 88 | 1015.4 |
| 20260508205305 | 59 | 138 | 4.0 | 7.0 | 0.02 | 0.02 | 0.02 | 87 | 1015.5 |
| 20260508204802 | 59 | 140 | 5.0 | 8.0 | 0.01 | 0.01 | 0.01 | 87 | 1015.5 |
| 20260508204302 | 59 | 142 | 5.0 | 7.0 | 0.01 | 0.01 | 0.01 | 87 | 1015.5 |
| 20260508203802 | 59 | 149 | 6.0 | 9.0 | 0.00 | 0.00 | 0.00 | 87 | 1015.3 |
| 20260508203302 | 59 | 157 | 8.0 | 10.0 | 0.00 | 0.00 | 0.00 | 87 | 1015.4 |
| 20260508202802 | 59 | 143 | 8.0 | 12.0 | 0.00 | 0.00 | 0.00 | 87 | 1015.5 |
| 20260508202306 | 59 | 165 | 7.0 | 10.0 | 0.00 | 0.00 | 0.00 | 87 | 1015.3 |
| 20260508201802 | 59 | 159 | 8.0 | 11.0 | 0.00 | 0.00 | 0.00 | 87 | 1015.4 |
| 20260508201302 | 59 | 143 | 8.0 | 13.0 | 0.00 | 0.00 | 0.00 | 87 | 1015.3 |
| 20260508200802 | 59 | 157 | 9.0 | 15.0 | 0.00 | 0.00 | 0.00 | 87 | 1015.2 |
| 20260508200302 | 59 | 155 | 9.0 | 15.0 | 0.00 | 0.00 | 0.00 | 87 | 1015.2 |
| 20260508195802 | 60 | 173 | 8.0 | 13.0 | 0.00 | 0.00 | 0.00 | 88 | 1015.2 |
| 20260508195306 | 60 | 152 | 6.0 | 10.0 | 0.00 | 0.00 | 0.00 | 89 | 1015.2 |
| 20260508194802 | 60 | 138 | 6.0 | 9.0 | 0.00 | 0.00 | 0.00 | 89 | 1015.1 |
| 20260508194303 | 60 | 138 | 6.0 | 9.0 | 0.00 | 0.00 | 0.00 | 89 | 1015.1 |
| 20260508193802 | 60 | 142 | 6.0 | 9.0 | 0.00 | 0.00 | 0.00 | 89 | 1014.9 |
| 20260508193302 | 60 | 140 | 5.0 | 9.0 | 0.00 | 0.00 | 0.00 | 89 | 1014.8 |
| 20260508192802 | 60 | 129 | 4.0 | 8.0 | 0.00 | 0.00 | 0.00 | 89 | 1014.7 |
| 20260508192305 | 60 | 123 | 4.0 | 7.0 | 0.00 | 0.00 | 0.00 | 89 | 1014.7 |
| 20260508191802 | 61 | 131 | 4.0 | 5.0 | 0.00 | 0.00 | 0.00 | 89 | 1014.6 |
| 20260508191302 | 61 | 135 | 3.0 | 5.0 | 0.00 | 0.00 | 0.00 | 89 | 1014.6 |
| 20260508190802 | 61 | 131 | 4.0 | 5.0 | 0.00 | 0.00 | 0.00 | 89 | 1014.5 |
| 20260508190302 | 61 | 123 | 4.0 | 7.0 | 0.00 | 0.00 | 0.00 | 88 | 1014.5 |
| 20260508185803 | 61 | 140 | 4.0 | 7.0 | 0.00 | 0.00 | 0.00 | 88 | 1014.4 |
| 20260508185306 | 61 | 127 | 3.0 | 5.0 | 0.00 | 0.00 | 0.00 | 88 | 1014.4 |
| 20260508184803 | 61 | 123 | 4.0 | 5.0 | 0.00 | 0.00 | 0.00 | 87 | 1014.3 |
| 20260508184303 | 61 | 142 | 4.0 | 7.0 | 0.00 | 0.00 | 0.00 | 87 | 1014.3 |
| 20260508183803 | 61 | 124 | 4.0 | 7.0 | 0.00 | 0.00 | 0.00 | 86 | 1014.2 |
| 20260508183303 | 61 | 109 | 3.0 | 6.0 | 0.00 | 0.00 | 0.00 | 86 | 1014.1 |
| 20260508182803 | 61 | 116 | 2.0 | 4.0 | 0.00 | 0.00 | 0.00 | 85 | 1014.0 |
| 20260508182306 | 62 | 106 | 0.0 | 3.0 | 0.00 | 0.00 | 0.00 | 85 | 1013.9 |
| 20260508181803 | 62 | 71 | 0.0 | 0.0 | 0.00 | 0.00 | 0.00 | 84 | 1013.9 |
| 20260508181303 | 62 | 67 | 0.0 | 0.0 | 0.00 | 0.00 | 0.00 | 84 | 1013.8 |
| 20260508180803 | 62 | 66 | 0.0 | 0.0 | 0.00 | 0.00 | 0.00 | 83 | 1013.8 |
| 20260508180303 | 62 | 66 | 0.0 | 0.0 | 0.00 | 0.00 | 0.00 | 83 | 1013.7 |
| 20260508175803 | 62 | 66 | 0.0 | 0.0 | 0.00 | 0.00 | 0.00 | 83 | 1013.7 |
| 20260508175305 | 62 | 66 | 0.0 | 0.0 | 0.00 | 0.00 | 0.00 | 82 | 1013.6 |
| 20260508174803 | 62 | 66 | 1.0 | 1.0 | 0.00 | 0.00 | 0.00 | 82 | 1013.6 |
| 20260508174303 | 62 | 66 | 1.0 | 3.0 | 0.00 | 0.00 | 0.00 | 82 | 1013.4 |
| 20260508173803 | 62 | 67 | 0.0 | 0.0 | 0.00 | 0.00 | 0.00 | 81 | 1013.5 |
| 20260508173303 | 62 | 67 | 1.0 | 1.0 | 0.00 | 0.00 | 0.00 | 81 | 1013.4 |
| 20260508172803 | 62 | 67 | 1.0 | 2.0 | 0.00 | 0.00 | 0.00 | 81 | 1013.4 |
| 20260508172306 | 62 | 67 | 2.0 | 3.0 | 0.00 | 0.00 | 0.00 | 80 | 1013.3 |
| 20260508171803 | 62 | 67 | 2.0 | 3.0 | 0.00 | 0.00 | 0.00 | 80 | 1013.3 |
| 20260508171303 | 62 | 67 | 1.0 | 4.0 | 0.00 | 0.00 | 0.00 | 80 | 1013.3 |
| 20260508170803 | 62 | 293 | 0.0 | 2.0 | 0.00 | 0.00 | 0.00 | 80 | 1013.2 |
| 20260508170303 | 62 | 293 | 0.0 | 2.0 | 0.00 | 0.00 | 0.00 | 79 | 1013.2 |
| 20260508165803 | 62 | 293 | 1.0 | 1.0 | 0.00 | 0.00 | 0.00 | 79 | 1013.1 |
| 20260508165306 | 63 | 293 | 2.0 | 3.0 | 0.00 | 0.00 | 0.00 | 79 | 1013.1 |
| 20260508164803 | 63 | 296 | 2.0 | 4.0 | 0.00 | 0.00 | 0.00 | 79 | 1013.1 |
| 20260508164303 | 63 | 291 | 4.0 | 6.0 | 0.00 | 0.00 | 0.00 | 78 | 1013.1 |
| 20260508163803 | 63 | 270 | 4.0 | 7.0 | 0.00 | 0.00 | 0.00 | 78 | 1013.2 |
| 20260508163303 | 63 | 272 | 4.0 | 7.0 | 0.00 | 0.00 | 0.00 | 78 | 1013.1 |
| 20260508162803 | 63 | 300 | 4.0 | 7.0 | 0.00 | 0.00 | 0.00 | 77 | 1013.1 |
| 20260508162306 | 63 | 299 | 3.0 | 6.0 | 0.00 | 0.00 | 0.00 | 77 | 1013.0 |
| 20260508161803 | 64 | 296 | 3.0 | 4.0 | 0.00 | 0.00 | 0.00 | 76 | 1013.0 |
| 20260508161303 | 64 | 290 | 2.0 | 4.0 | 0.00 | 0.00 | 0.00 | 76 | 1013.1 |
| 20260508160803 | 64 | 268 | 3.0 | 7.0 | 0.00 | 0.00 | 0.00 | 75 | 1013.0 |
| 20260508160303 | 64 | 304 | 4.0 | 7.0 | 0.00 | 0.00 | 0.00 | 75 | 1012.8 |
| 20260508155803 | 64 | 273 | 4.0 | 6.0 | 0.00 | 0.00 | 0.00 | 75 | 1012.8 |
| 20260508155306 | 64 | 278 | 5.0 | 7.0 | 0.00 | 0.00 | 0.00 | 75 | 1012.8 |
| 20260508154803 | 64 | 295 | 4.0 | 7.0 | 0.00 | 0.00 | 0.00 | 75 | 1012.8 |
| 20260508154303 | 64 | 278 | 5.0 | 8.0 | 0.00 | 0.00 | 0.00 | 75 | 1012.8 |
| 20260508153803 | 64 | 270 | 5.0 | 8.0 | 0.00 | 0.00 | 0.00 | 74 | 1012.7 |
| 20260508153303 | 64 | 270 | 5.0 | 8.0 | 0.00 | 0.00 | 0.00 | 74 | 1012.8 |
| 20260508152803 | 65 | 261 | 6.0 | 10.0 | 0.00 | 0.00 | 0.00 | 73 | 1012.8 |
| 20260508152305 | 65 | 298 | 6.0 | 9.0 | 0.00 | 0.00 | 0.00 | 73 | 1013.0 |
| 20260508151803 | 65 | 291 | 6.0 | 10.0 | 0.00 | 0.00 | 0.00 | 71 | 1013.0 |
| 20260508151303 | 65 | 322 | 5.0 | 9.0 | 0.00 | 0.00 | 0.00 | 70 | 1013.0 |
| 20260508150803 | 66 | 311 | 5.0 | 8.0 | 0.00 | 0.00 | 0.00 | 70 | 1012.8 |
| 20260508150303 | 66 | 296 | 6.0 | 8.0 | 0.00 | 0.00 | 0.00 | 68 | 1012.8 |
| 20260508145803 | 66 | 306 | 6.0 | 8.0 | 0.00 | 0.00 | 0.00 | 68 | 1012.8 |
| 20260508145306 | 66 | 313 | 6.0 | 7.0 | 0.00 | 0.00 | 0.00 | 68 | 1012.8 |
| 20260508144803 | 67 | 300 | 3.0 | 10.0 | 0.00 | 0.00 | 0.00 | 66 | 1012.7 |
| 20260508144303 | 68 | 296 | 2.0 | 5.0 | 0.00 | 0.00 | 0.00 | 65 | 1012.8 |
| 20260508143803 | 68 | 334 | 1.0 | 2.0 | 0.00 | 0.00 | 0.00 | 61 | 1012.8 |
| 20260508143303 | 68 | 98 | 1.0 | 2.0 | 0.00 | 0.00 | 0.00 | 60 | 1012.8 |
| 20260508142803 | 68 | 94 | 1.0 | 2.0 | 0.00 | 0.00 | 0.00 | 60 | 1012.8 |
| 20260508142306 | 68 | 94 | 1.0 | 2.0 | 0.00 | 0.00 | 0.00 | 60 | 1012.7 |
| 20260508141803 | 67 | 5 | 1.0 | 1.0 | 0.00 | 0.00 | 0.00 | 61 | 1012.8 |
| 20260508141303 | 67 | 0 | 2.0 | 4.0 | 0.00 | 0.00 | 0.00 | 60 | 1012.8 |
| 20260508140803 | 67 | 337 | 2.0 | 3.0 | 0.00 | 0.00 | 0.00 | 62 | 1012.9 |
| 20260508140303 | 66 | 337 | 2.0 | 3.0 | 0.00 | 0.00 | 0.00 | 62 | 1012.8 |
| 20260508135803 | 66 | 322 | 2.0 | 3.0 | 0.00 | 0.00 | 0.00 | 65 | 1012.8 |
| 20260508135306 | 66 | 292 | 3.0 | 4.0 | 0.00 | 0.00 | 0.00 | 65 | 1012.9 |
| 20260508134803 | 66 | 284 | 3.0 | 4.0 | 0.00 | 0.00 | 0.00 | 66 | 1012.8 |
| 20260508134303 | 66 | 307 | 3.0 | 4.0 | 0.00 | 0.00 | 0.00 | 66 | 1013.0 |
| 20260508133803 | 66 | 270 | 3.0 | 6.0 | 0.00 | 0.00 | 0.00 | 66 | 1012.9 |
| 20260508133303 | 66 | 283 | 3.0 | 4.0 | 0.00 | 0.00 | 0.00 | 66 | 1013.0 |
| 20260508132803 | 66 | 300 | 3.0 | 4.0 | 0.00 | 0.00 | 0.00 | 68 | 1013.0 |
| 20260508132306 | 65 | 292 | 3.0 | 4.0 | 0.00 | 0.00 | 0.00 | 66 | 1013.1 |
| 20260508131803 | 65 | 303 | 4.0 | 6.0 | 0.00 | 0.00 | 0.00 | 67 | 1013.0 |
| 20260508131303 | 65 | 273 | 5.0 | 7.0 | 0.00 | 0.00 | 0.00 | 67 | 1013.0 |
| 20260508130803 | 65 | 292 | 5.0 | 8.0 | 0.00 | 0.00 | 0.00 | 67 | 1013.0 |
| 20260508130303 | 65 | 286 | 5.0 | 8.0 | 0.00 | 0.00 | 0.00 | 68 | 1013.1 |
| 20260508125803 | 65 | 295 | 6.0 | 9.0 | 0.00 | 0.00 | 0.00 | 68 | 1013.0 |
| 20260508125306 | 65 | 296 | 6.0 | 8.0 | 0.00 | 0.00 | 0.00 | 68 | 1013.0 |
| 20260508124803 | 65 | 288 | 7.0 | 9.0 | 0.00 | 0.00 | 0.00 | 68 | 1013.2 |
| 20260508124303 | 65 | 272 | 7.0 | 9.0 | 0.00 | 0.00 | 0.00 | 68 | 1013.3 |
| 20260508123803 | 65 | 272 | 7.0 | 10.0 | 0.00 | 0.00 | 0.00 | 67 | 1013.2 |
| 20260508123303 | 65 | 289 | 6.0 | 9.0 | 0.00 | 0.00 | 0.00 | 68 | 1013.3 |
| 20260508122803 | 65 | 263 | 6.0 | 8.0 | 0.00 | 0.01 | 0.00 | 69 | 1013.4 |
| 20260508122306 | 65 | 285 | 6.0 | 10.0 | 0.00 | 0.01 | 0.00 | 69 | 1013.4 |
| 20260508121803 | 65 | 278 | 6.0 | 9.0 | 0.00 | 0.01 | 0.00 | 69 | 1013.4 |
| 20260508121303 | 65 | 305 | 7.0 | 10.0 | 0.00 | 0.01 | 0.00 | 68 | 1013.5 |
| 20260508120803 | 65 | 306 | 6.0 | 10.0 | 0.00 | 0.01 | 0.00 | 69 | 1013.4 |
| 20260508120303 | 65 | 310 | 5.0 | 9.0 | 0.00 | 0.01 | 0.00 | 69 | 1013.5 |
| 20260508115803 | 65 | 326 | 5.0 | 8.0 | 0.00 | 0.01 | 0.00 | 70 | 1013.6 |
| 20260508115306 | 65 | 299 | 5.0 | 10.0 | 0.00 | 0.01 | 0.00 | 70 | 1013.6 |
| 20260508114803 | 65 | 304 | 5.0 | 9.0 | 0.00 | 0.01 | 0.00 | 69 | 1013.5 |
| 20260508114303 | 65 | 311 | 6.0 | 10.0 | 0.00 | 0.01 | 0.00 | 68 | 1013.7 |
| 20260508113803 | 65 | 312 | 6.0 | 10.0 | 0.00 | 0.01 | 0.00 | 68 | 1013.7 |
| 20260508113303 | 65 | 321 | 6.0 | 9.0 | 0.00 | 0.01 | 0.00 | 67 | 1013.7 |
| 20260508112803 | 65 | 276 | 8.0 | 13.0 | 0.00 | 0.01 | 0.00 | 67 | 1013.7 |
| 20260508112306 | 65 | 303 | 7.0 | 13.0 | 0.00 | 0.01 | 0.00 | 67 | 1013.7 |
| 20260508111803 | 66 | 298 | 6.0 | 11.0 | 0.00 | 0.01 | 0.00 | 67 | 1013.7 |
| 20260508111303 | 66 | 315 | 7.0 | 10.0 | 0.00 | 0.01 | 0.00 | 67 | 1013.8 |
| 20260508110803 | 66 | 298 | 6.0 | 10.0 | 0.00 | 0.01 | 0.00 | 66 | 1013.9 |
| 20260508110303 | 66 | 304 | 5.0 | 8.0 | 0.00 | 0.01 | 0.00 | 64 | 1014.0 |
| 20260508105803 | 67 | 330 | 5.0 | 8.0 | 0.00 | 0.01 | 0.00 | 64 | 1014.0 |